Location: Kampong Baharu
(2.8404°N, 101.5743°E)
Time: 15:00:36
(UTC+00:00)

Daily predictions for brighter satellites

Satellite Brightness Start Highest point End
(mag) Time Altitude Azimuth Time Altitude Azimuth Time Altitude Azimuth
Resurs 01 Rocket 2.3 12:01:55 10° SE 12:05:46 34° ENE 12:09:42 10° NNE
FALCON 9 R/B 3.3 12:01:04 10° WSW 12:06:49 87° NNW 12:30:33 10° ENE
CZ-4C R/B 1.0 12:05:43 10° SSW 12:09:18 57° ESE 12:12:50 10° NNE
Meteor 2-21 Rocket 4.4 12:03:34 10° N 12:09:46 85° E 12:15:59 10° S
SJ-6B 4.4 12:12:17 15° ENE 12:12:17 15° ENE 12:13:45 10° NE
ATLAS 5 CENTAUR R/B 4.1 12:09:50 10° NE 12:12:10 12° ENE 12:12:33 12° ENE
Delta 168 2.6 12:09:43 10° WSW 12:12:49 67° NNW 12:15:56 14° NE
Cosmos 2263 4.2 12:08:59 10° N 12:14:39 64° ENE 12:20:06 11° SSE
Cosmos 1371 Rocket 4.0 12:14:09 10° SSW 12:19:22 85° WNW 12:24:37 10° N
GPS 2-15 Rocket1 4.5 12:16:45 10° SSW 12:20:30 22° SSE 12:21:21 21° SE
SWIFT 3.3 12:18:54 10° W 12:21:40 29° NNW 12:23:46 14° NE
SAR-Lupe-1 4.1 12:22:25 31° SE 12:23:47 52° ENE 12:27:14 10° N
Cosmos 1727 Rocket 4.3 12:18:06 10° N 12:24:14 69° W 12:30:22 10° S
Cosmos 405 Rocket 2.5 12:21:55 10° N 12:24:23 41° ENE 12:24:23 41° ENE
Spot 4 Rocket 4.0 12:22:04 14° SSE 12:26:21 60° ENE 12:31:22 10° N
COSMOS 2455 3.8 12:21:54 10° NNE 12:26:42 25° ENE 12:27:31 24° E
Lacrosse 5 rocket 3.2 12:26:23 10° NNE 12:26:50 12° NNE 12:26:50 12° NNE
USA 59 Rocket 3.7 12:26:24 10° W 12:30:11 16° WSW 12:34:36 10° SSW
BLOCK DM-SL R/B 3.4 12:25:12 10° W 12:32:02 77° S 12:34:25 32° E
Cosmos 1605 Rocket 4.0 12:27:11 10° S 12:33:17 83° W 12:39:24 10° N
YAOGAN 3 4.3 12:33:47 31° SSE 12:35:42 73° ENE 12:39:51 10° N
Aurora 2 Rocket 4.5 12:37:06 10° N 12:39:17 14° NNE 12:39:39 14° NE
Hubble Space Telescope 1.0 12:37:36 10° NW 12:41:13 45° NNE 12:41:14 45° NNE
Cosmos 2123 Rocket 3.9 12:35:25 10° N 12:41:43 82° E 12:47:58 10° S
USA 306 4.3 12:39:31 10° WSW 12:43:10 35° WNW 12:46:47 10° N
Cosmos 1331 Rocket 4.0 12:38:28 10° S 12:43:36 54° ESE 12:48:42 10° NNE
CZ-2D R/B 3.9 12:43:25 22° S 12:45:44 54° WSW 12:49:28 10° NNW
HBTSS-SV1 4.3 12:41:54 10° NW 12:46:20 84° NE 12:46:48 70° ESE
Cosmos 724 4.2 12:41:28 10° SSW 12:47:36 71° ESE 12:53:38 10° NNE
SAR-Lupe-4 4.2 12:46:32 36° SSW 12:47:38 52° WSW 12:51:02 10° NNW
Cosmos 2369 Rocket 3.8 12:46:41 10° NW 12:51:39 33° WSW 12:56:39 10° SSW
H-10 deb 2.5 12:46:23 10° W 12:54:15 52° N 12:54:41 49° NNE
Cosmos 407 Rocket 4.3 12:53:02 10° N 12:56:26 35° NE 12:56:26 35° NE
OceanSat 1 rocket 4.5 12:58:41 72° S 12:59:10 87° WSW 13:03:50 10° NNW
USA 215 3.3 13:08:34 56° ENE 13:09:06 57° NE 13:15:27 10° NNW
SL-19 R/B 4.3 13:09:26 54° SSW 13:10:36 73° WSW 13:16:11 10° NNW
ATLAS 2AS CENTAUR RB 4.1 13:08:58 10° SW 13:10:51 12° SSW 13:10:57 12° SSW
Cosmos 921 Rocket 4.1 13:12:20 10° NNW 13:15:22 39° WNW 13:15:22 39° WNW
MAQSAT/ARIANE V 3.0 13:02:59 10° W 13:19:54 61° N 13:20:08 61° N
Ariane H10+ 3.1 13:15:24 10° WSW 13:20:42 51° S 13:20:42 51° S
Palapa B4 Rocket 4.0 13:13:37 10° WNW 13:22:54 80° NNE 13:23:01 80° NE
Cosmos 2100 Rocket 4.4 13:25:09 50° N 13:25:09 50° N 13:29:36 10° N
CZ-3 Stage 3 4.3 13:28:15 10° W 13:32:38 16° NW 13:34:50 11° NNW
ATLAS 5 CENTAUR R/B 3.5 13:48:07 10° NW 13:51:41 39° NW 13:51:41 39° NW
Ariane H10+ 4.4 19:35:48 73° NE 19:35:48 73° NE 19:48:54 10° E
Chandra Rocket (1) 4.5 20:36:44 22° ESE 20:36:44 22° ESE 20:39:36 10° ESE
Ariane H10 4.2 20:47:23 37° E 20:47:23 37° E 20:49:08 10° E
Cosmos 2344 4.1 20:54:29 55° WNW 20:54:41 55° WNW 21:02:41 10° N
SL-16 R/B 4.5 20:50:48 10° SE 20:55:55 27° ENE 21:01:00 10° NNE
CZ-2C R/B 3.4 20:51:47 10° NNE 20:55:03 40° ENE 20:55:03 40° ENE
USA 281 3.4 20:59:15 55° NW 20:59:15 55° NW 21:04:12 10° NNW
Ariane H10 3.8 21:05:18 26° SE 21:05:18 26° SE 21:09:06 10° ESE
SL-16 R/B 2.1 21:01:46 10° NNW 21:10:17 31° SSE 21:13:07 10° SSE
BREEZE-M R/B 4.5 21:12:10 55° WSW 21:14:01 75° NW 21:27:18 10° NNE
ARIANE 3 DEB 4.5 21:23:29 27° SSE 21:23:29 27° SSE 21:26:43 10° SE
Cosmos 1862 Rocket 4.2 21:21:07 29° SSE 21:23:06 55° E 21:27:25 10° NNE
Ariane 42L R/B 3.6 21:27:14 44° SW 21:27:56 46° SSW 21:31:53 10° ESE
ARIANE 5 DEB (SYLDA) 3.1 21:28:39 66° WNW 21:29:16 85° N 21:36:54 10° E
Ariane H10+ 4.4 21:28:37 24° W 21:39:42 75° N 21:51:39 10° E
HETE-2 4.1 21:40:08 70° S 21:40:08 70° S 21:43:40 10° E
ARIANE 5 R/B 2.5 21:38:07 27° WNW 21:41:45 62° N 21:44:28 10° ENE
Fermi 3.4 21:43:05 65° WSW 21:43:30 73° SSW 21:47:19 10° ESE
NOSS 2-3 (E) 3.6 21:43:12 41° SW 21:44:38 61° WNW 21:48:39 10° NNE
SJ-11-01 4.2 21:40:13 10° N 21:44:44 61° WNW 21:46:44 32° SW
NOSS 2-3 (D) 3.6 21:43:13 39° SW 21:44:52 65° WNW 21:48:58 10° NNE
ARIANE 5 R/B 2.2 21:47:48 34° S 21:47:48 34° S 21:49:44 10° ESE
Meteor 2-5 Rocket 4.1 21:44:25 10° S 21:49:58 64° E 21:55:24 10° NNE
IUS R/B (1) 2.5 21:45:22 10° NW 21:50:32 58° NNE 21:52:54 10° ESE
NOSS 2-3 (C) 3.4 21:53:57 22° SSW 21:56:59 73° WNW 22:00:48 10° NNE
FengYun 1-2 T 4.5 21:52:07 10° N 21:57:24 47° WNW 22:01:39 16° SW
Cosmos 1943 3.1 21:53:37 10° NNW 21:59:12 88° ENE 22:04:49 10° SSE
Cosmos 1680 Rocket 3.4 21:55:26 13° SSW 22:00:02 67° WNW 22:05:12 10° N
Centaur D-1AR AC-36 4.4 22:00:17 10° NW 22:03:19 14° N 22:05:24 10° NNE
deb Ariane 3.0 22:02:11 26° WNW 22:03:33 58° N 22:08:21 10° E
ARIANE 5 R/B 1.5 22:05:09 20° WNW 22:07:20 63° N 22:11:17 10° E
IRS-1D 3.9 22:03:47 10° NNE 22:09:04 71° ESE 22:14:19 10° S
H-2A R/B 3.5 22:06:56 10° NNE 22:10:42 71° ESE 22:14:29 10° S
SWIFT 1.4 22:09:06 23° WNW 22:10:53 79° SSW 22:14:01 10° ESE
Cosmos 1939 Rocket 4.0 22:09:35 10° NNW 22:12:32 22° WNW 22:13:37 20° WSW
USA 59 Rocket 2.8 22:07:01 10° S 22:12:36 25° ESE 22:16:55 10° ENE
Cosmos 1733 Rocket 4.0 22:09:56 10° N 22:14:06 51° E 22:18:15 10° SSE
Cosmos 1400 Rocket 2.5 22:10:49 10° N 22:14:33 83° W 22:18:19 10° S
ARIANE 5 R/B 2.2 22:14:03 22° W 22:15:33 77° S 22:23:35 10° E
GOES 2 Rocket 3.5 22:13:19 18° W 22:16:40 49° NNW 22:20:47 10° NE
MOS 1 Rocket 4.1 22:16:03 10° NNE 22:20:08 46° E 22:24:13 10° S
CZ-4 R/B 4.4 22:17:02 10° NNE 22:21:51 64° ESE 22:26:44 10° S
Cosmos 2228 Rocket 3.8 22:19:37 10° SSW 22:23:44 34° W 22:27:49 10° NNW
BREEZE-M DEB (TANK) 3.0 22:21:33 12° SW 22:24:17 81° NW 22:32:20 10° NE
SL-8 Rocket 4.0 22:21:31 10° N 22:27:41 87° W 22:33:51 10° S
Exosat Rocket 4.2 22:26:08 10° SSW 22:32:41 45° W 22:37:45 10° N
ISS -2.1 22:30:22 10° NNW 22:33:32 39° NE 22:36:44 10° SE
USA 238 DEB 3.7 22:28:27 10° SSW 22:34:16 66° ESE 22:40:07 10° NNE
USA 238 3.8 22:28:40 10° SSW 22:34:28 65° ESE 22:40:18 10° NNE
Meteor 1-24 Rocket 4.4 22:32:05 10° SW 22:36:35 28° W 22:41:07 10° NNW
SL-16 R/B 3.4 22:34:01 10° SSW 22:39:09 27° WSW 22:44:18 10° NW
Palapa 6 Rocket 3.5 22:35:04 10° NW 22:39:25 53° NNE 22:43:13 10° E
Cosmos 1943 Rocket 2.5 22:35:08 10° SSW 22:40:28 47° WNW 22:45:50 10° N
Cosmos 2278 Rocket 2.2 22:35:09 10° SSW 22:40:46 65° WNW 22:46:22 10° N
IGS 5A 3.3 22:37:27 10° N 22:41:21 64° WNW 22:45:15 10° SSW
Cosmos 1048 Rocket 3.9 22:37:02 10° SSW 22:42:09 76° WNW 22:47:12 10° N
Ariane H10 4.1 22:19:32 10° W 22:48:46 57° SSW 22:53:22 10° ESE
ARIANE 44P R/B 4.2 23:13:26 10° W 23:36:01 67° S 23:39:57 10° E
